STARLINK-1981 (47579 NORAD) Tracking and Keplerian Element Data

This shows tracking and keplerian element data for the satellite.

Feedback or suggestion? Click here.




ElementValue
Catalog47579
NameSTARLINK-1981
Epoch Orbit454
Epoch Day60.16668981
Epoch Year2021
RAAN1.7348
Inclination53.0542
Eccentricity0.0001414
Argument of Perigee64.9576
Mean Anonmoly243.592
Mean Motion15.62729686
Decay Rate0.00037142
L11 47579U 21009AH 21060.16668981 .00037142 00000-0 40999-3 0 9999
L22 47579 53.0542 1.7348 0001414 64.9576 243.5920 15.62729686 4543

Live tracking and technical data element details for STARLINK-1981 (NORAD 47579). STARLINK-1981 can be tracked NOW for your location showing map with azimuth and elevation plus other details from your city location.

Track the satellite on the map from your city or location and see movement details for azimuth, elevation, latitude, longitude, range, height, and movement on the map or in text.







IsCatalogInMostPopularTable: catalog: 47579, numindb: 3
Update: records affected: 1



GetName: 47579 STARLINK-1981

Hit Count: updated at: Mon, 01 Mar 2021 16:59:51 GMT